Wind_Gust
18 19 16 15 15 17 18 16 14 26 25 26 25 24 25 23 13 11 17 9 13 15 11 12 18 20 27 28 27 25 27 29 24 17 17 24 20 23 19 17 16 17 17 19 18 16 16 13 10 12 11 12 12 13 11 12 13 13 14 13 14 12 13 12 12 13 15 14 13 13 14 14 14 13 12 12 11 12 12 14 15 15 17 17 17 17 17 16 16 16 16 16 18 18 19 22 22
21 18 15 11 17 16 18 18 22 18 25 24 26 25 26 18 11 17 11 12 19 19 12 12 14 15 15 18 22 25 31 27 25 30 26 25 21 21 19 16 19 18 18 17 16 15 14 15 10 12 11 13 13 12 13 12 13 14 15 14 15 13 13 12 11 11 13 14 13 13 14 15 15 13 12 12 12 11 10 11 13 13 14 18 17 18 16 15 15 15 16 16 17 19 19 22 22
20 20 16 15 18 21 21 20 24 22 23 24 24 30 15 13 12 15 15 22 19 16 16 17 14 20 12 15 25 23 26 22 25 24 27 22 18 18 19 18 20 19 19 16 15 14 16 14 11 12 11 12 12 12 13 13 14 14 14 15 15 15 14 10 12 11 12 13 14 14 14 16 15 14 13 11 11 11 10 10 12 14 12 16 17 17 16 15 15 15 15 15 17 20 20 21 20
19 19 22 15 18 19 19 19 23 25 25 23 23 25 24 14 11 21 26 20 20 15 14 20 17 24 17 26 28 23 23 25 22 20 27 21 22 20 21 20 19 20 19 19 16 15 16 15 12 12 12 12 11 13 13 14 15 15 16 15 16 16 15 14 13 12 12 13 14 14 13 15 15 14 13 12 9 11 12 11 10 11 13 13 15 15 15 14 13 14 14 15 17 20 21 22 19
18 19 18 20 20 20 22 23 24 24 28 26 16 22 12 14 25 23 20 18 16 14 11 21 20 17 29 28 24 27 26 23 22 20 27 22 22 23 25 22 20 20 21 21 19 19 18 15 14 13 12 12 12 14 13 13 15 16 17 17 17 16 15 14 12 13 14 14 14 14 13 14 16 15 13 12 11 11 12 11 9 10 10 10 11 11 11 10 12 13 13 15 18 20 22 21 20
19 20 16 19 24 25 22 23 24 27 26 27 25 26 16 19 21 21 16 15 15 10 13 11 14 20 25 27 28 25 14 22 19 19 25 25 28 26 25 25 22 21 20 19 19 18 18 16 14 15 14 14 12 13 13 14 16 17 17 18 17 16 15 13 12 14 14 15 15 14 15 14 15 14 12 13 12 11 10 10 10 10 8 10 10 10 10 10 11 11 12 16 19 20 21 20 18
20 18 19 18 24 22 21 22 24 25 26 26 28 10 11 18 19 14 17 17 11 13 8 15 18 23 24 26 27 26 21 19 21 26 23 25 26 27 26 26 25 22 19 19 18 18 17 13 13 14 14 12 11 12 11 13 16 18 18 17 16 15 15 12 13 13 16 15 16 15 14 14 13 14 14 13 13 12 12 10 9 9 9 9 10 11 13 13 13 12 15 17 18 20 19 18 17
19 24 18 20 20 22 24 24 27 25 22 27 21 11 10 17 15 13 16 16 20 17 15 15 14 18 22 19 29 20 20 21 23 24 27 26 25 27 26 25 26 23 20 17 17 16 16 13 12 12 11 9 11 10 10 11 15 17 18 17 16 16 15 14 14 14 14 14 16 15 14 14 13 14 15 15 14 13 12 10 10 10 10 11 12 13 15 15 14 14 17 18 18 18 18 18 17
20 22 15 22 23 24 22 26 27 28 25 18 13 20 12 15 11 15 15 17 18 14 14 16 14 16 26 26 25 20 24 20 22 23 25 25 26 26 29 24 24 22 19 17 17 14 14 11 11 10 9 9 8 10 10 9 10 14 17 16 15 15 14 14 15 14 14 12 14 15 14 14 12 12 13 14 14 12 11 11 10 11 12 13 14 15 15 15 15 15 17 18 18 17 17 16 16
22 22 20 24 19 25 24 24 26 25 29 19 16 18 13 15 14 12 16 15 14 14 15 12 13 25 20 26 26 18 22 20 23 24 23 24 29 30 30 27 20 19 17 17 13 14 13 12 11 10 9 11 12 13 15 15 9 9 13 15 13 13 14 14 13 14 13 12 13 13 13 12 11 12 13 14 14 13 12 11 11 11 13 15 15 15 15 14 15 15 16 17 17 17 16 16 15
25 24 19 24 22 23 26 22 24 23 29 21 11 10 15 11 13 18 16 16 16 15 14 9 18 20 23 24 27 21 20 21 22 24 23 23 28 29 30 27 24 21 21 18 14 12 12 11 12 9 9 13 14 15 15 15 13 7 9 11 12 13 13 13 13 13 13 12 12 12 12 12 11 11 12 13 13 13 12 11 11 12 13 14 15 15 14 14 14 14 14 13 13 14 14 14 13
23 23 22 22 22 23 22 26 22 25 23 21 12 11 14 12 11 20 17 20 16 16 14 15 21 26 22 26 24 20 21 22 22 22 23 22 24 28 28 29 26 23 21 20 17 14 12 11 9 10 9 12 12 12 11 11 11 7 8 9 11 11 12 12 12 12 12 11 11 11 11 10 10 11 12 12 12 12 13 12 12 12 14 15 15 14 14 13 13 12 13 13 13 13 14 13 12
25 19 21 24 23 22 24 25 23 24 26 20 14 19 13 18 17 15 11 14 14 14 15 13 21 17 25 23 25 21 22 21 21 21 21 21 21 24 26 28 28 25 23 20 18 16 13 10 9 10 11 9 11 10 10 11 11 8 7 8 9 10 10 11 12 12 11 10 10 10 10 10 10 10 12 12 13 12 12 12 12 12 14 15 15 14 14 13 13 14 14 14 14 13 13 12 11
25 20 21 25 20 26 27 24 28 32 24 24 17 17 16 17 16 14 15 17 16 16 17 14 12 23 29 26 24 22 23 22 24 22 23 22 20 22 19 24 24 26 23 22 19 17 12 11 10 8 10 8 9 10 9 11 10 7 7 6 8 9 10 11 10 10 10 10 10 10 10 10 10 10 11 11 12 11 11 11 11 12 14 16 15 14 13 13 14 15 14 14 13 12 13 12 11
26 19 22 23 24 23 23 30 21 24 16 21 22 19 15 11 15 11 16 14 15 18 20 19 20 14 24 23 26 26 25 25 21 21 19 19 20 19 20 19 16 21 24 23 21 17 16 14 11 8 7 7 8 7 9 11 8 7 6 6 7 8 9 9 10 10 10 11 12 11 11 11 11 11 11 11 11 12 12 12 11 11 13 16 15 14 13 13 14 15 15 13 13 12 12 12 10
23 22 23 23 23 23 21 24 22 23 23 19 25 17 18 15 10 14 14 22 26 17 13 20 10 22 17 20 27 29 27 25 19 17 18 18 17 19 22 19 18 17 15 20 21 18 17 14 11 8 8 8 8 9 10 11 9 7 8 8 6 7 8 9 9 9 10 11 12 11 11 14 12 14 14 14 13 12 13 12 11 12 13 15 16 15 13 13 14 15 13 13 12 12 13 12 11
20 19 22 21 24 21 19 20 19 25 16 24 20 19 21 21 12 12 14 19 14 16 12 15 15 14 26 35 30 29 25 20 17 16 14 14 17 19 19 18 18 16 14 13 11 18 19 16 13 9 6 8 9 9 9 11 11 9 6 8 7 6 7 8 9 9 8 8 11 10 10 15 14 15 16 15 14 16 10 13 11 13 14 16 16 15 13 12 13 12 11 11 12 11 10 10 9
19 24 22 22 22 22 15 26 15 15 15 20 16 18 16 17 22 16 14 13 12 13 12 16 17 22 23 28 27 26 24 20 17 16 14 14 13 17 20 20 19 18 15 13 11 13 15 19 17 13 7 7 8 7 10 12 12 7 11 11 11 9 7 6 10 12 11 12 9 13 13 12 10 12 14 13 14 15 12 14 12 13 14 16 16 15 13 11 10 10 7 9 9 11 13 14 11
23 21 23 24 20 21 20 19 20 16 14 18 12 13 14 17 19 19 22 19 15 15 16 16 18 22 23 24 25 24 20 17 15 12 12 11 13 14 14 14 12 17 17 13 11 11 8 7 15 17 14 7 7 11 10 10 12 10 11 10 10 7 11 12 10 11 12 13 14 14 12 8 12 10 13 12 13 10 13 13 13 13 12 15 15 13 14 12 8 6 5 6 10 12 16 12 14
22 22 23 25 23 21 16 8 11 15 17 14 13 14 13 19 21 21 22 19 14 17 21 18 21 20 23 24 24 22 19 17 13 12 12 11 15 14 13 13 12 9 13 14 11 9 7 8 11 12 13 12 11 6 11 11 11 12 9 6 6 7 7 10 11 10 10 12 15 11 10 6 9 12 10 12 13 10 10 11 13 13 14 14 15 13 13 13 12 8 8 6 5 10 14 14 16
21 26 26 24 19 26 22 12 11 11 14 14 8 10 17 22 18 18 18 19 18 17 19 21 22 23 25 23 22 19 19 17 16 13 11 14 12 12 12 12 12 12 15 13 11 9 7 6 6 7 9 11 12 10 12 11 9 8 9 6 5 8 5 5 9 7 9 11 12 10 11 9 7 8 9 7 6 7 9 13 14 15 15 16 15 14 16 17 14 16 13 10 13 15 15 16 14
16 24 26 27 13 21 18 9 10 7 9 9 9 14 15 16 12 15 16 19 15 13 21 23 24 24 26 23 21 19 19 17 17 16 15 13 13 14 12 12 9 9 13 14 11 8 10 13 8 6 5 7 12 14 12 11 10 10 10 7 4 7 7 7 8 5 5 7 7 14 19 9 13 9 10 7 6 7 11 12 14 15 16 16 18 15 16 17 16 18 16 16 16 16 15 12 12
24 19 24 22 14 17 16 11 9 7 11 17 11 12 14 18 13 13 13 17 20 19 23 18 17 25 26 20 19 18 18 17 17 16 18 14 13 14 13 14 14 14 12 13 10 8 7 10 10 10 7 6 8 18 16 14 12 11 11 10 7 7 7 7 8 10 8 8 10 18 16 12 9 10 10 10 10 8 12 10 15 14 15 15 16 16 16 17 17 16 16 14 15 16 16 9 8
22 22 15 21 11 15 10 16 9 14 14 14 15 7 16 13 17 17 17 14 19 19 13 13 18 23 23 20 16 17 17 17 16 16 16 15 13 13 12 13 14 12 14 11 11 9 7 10 10 10 9 7 6 13 19 15 13 11 8 7 8 8 8 10 8 8 13 10 14 21 8 8 11 8 8 8 7 10 12 13 9 13 14 16 17 16 16 18 15 16 15 18 21 19 17 10 7
20 25 17 16 11 15 9 9 11 8 12 11 12 11 13 11 15 9 20 19 20 14 13 10 18 20 20 16 16 16 15 16 15 16 14 17 15 13 12 16 13 13 13 10 10 10 10 8 9 10 7 5 6 8 14 17 14 14 12 8 5 6 7 8 9 9 8 9 12 16 7 7 7 7 10 8 6 8 9 9 14 13 16 18 17 13 14 13 13 14 16 16 13 14 8 5 9
20 21 15 15 13 11 11 10 10 11 14 12 10 14 16 17 10 10 10 18 12 13 10 11 15 20 19 16 15 15 16 15 16 16 17 16 14 14 15 17 16 15 13 11 9 9 9 12 11 10 9 7 8 5 9 8 8 15 13 8 9 9 8 9 7 9 7 8 11 12 8 8 7 9 9 8 8 9 11 12 13 14 14 12 15 14 12 12 9 12 9 10 12 9 8 6 3
10 22 20 9 14 15 11 16 14 12 16 13 16 15 20 16 12 20 18 20 16 12 13 12 14 17 17 17 16 14 17 16 17 16 18 15 15 15 14 15 16 17 14 13 12 10 8 11 12 12 12 10 7 11 9 7 7 8 10 13 11 12 11 8 9 10 8 8 10 7 9 7 9 9 6 8 8 12 9 13 14 12 13 10 8 10 12 13 11 7 12 9 10 9 7 9 6
14 18 10 16 13 11 12 17 17 14 18 12 14 18 17 17 19 22 19 27 17 14 15 15 15 16 17 17 17 16 17 17 20 16 19 18 18 17 14 18 15 15 14 13 11 10 10 11 13 11 10 8 10 10 7 7 6 7 5 5 7 11 9 12 14 9 6 5 9 10 9 8 7 9 10 10 13 10 10 8 10 10 10 13 17 21 18 10 13 15 14 11 7 7 3 7 7
15 10 19 16 14 20 17 19 16 15 18 16 13 16 20 21 22 18 25 20 18 14 14 16 16 17 17 19 18 19 19 20 20 19 19 17 18 16 15 16 17 16 16 13 14 11 11 10 10 10 11 7 8 9 8 7 5 7 5 6 8 4 8 7 7 13 8 4 4 10 8 10 7 9 13 11 9 11 10 8 6 7 9 7 9 13 16 19 11 10 9 11 12 5 5 8 13
17 14 20 19 22 23 21 20 19 16 16 14 8 19 19 26 25 25 20 17 14 15 17 17 17 17 18 19 18 19 19 19 20 18 20 17 19 16 18 15 15 15 18 16 13 13 11 10 9 10 10 12 10 9 7 9 6 4 6 7 7 5 5 7 7 6 7 7 10 14 11 13 8 8 9 12 12 10 9 10 7 8 7 6 6 12 16 11 17 9 8 7 4 6 5 3 7
22 18 19 24 22 26 26 28 21 19 18 14 11 20 19 22 24 29 23 19 17 17 16 17 18 17 17 19 17 19 20 18 20 18 17 14 18 18 18 14 15 16 18 15 15 15 12 10 11 11 10 10 10 10 9 9 7 10 11 8 7 6 4 5 5 5 9 6 11 13 15 12 10 7 12 9 8 12 9 7 9 9 10 8 8 9 10 11 17 12 9 11 5 7 10 8 5
20 23 23 21 23 23 26 29 23 21 23 17 14 21 23 26 29 26 23 19 17 17 17 18 18 18 17 18 17 19 20 18 19 18 19 15 17 19 18 15 17 19 17 16 16 15 15 13 11 11 10 9 8 8 8 6 7 6 8 7 6 5 5 6 5 5 6 5 6 8 7 5 6 6 6 4 5 6 8 9 8 7 10 8 9 9 9 9 10 13 13 8 8 13 13 10 11
23 23 16 20 19 23 21 25 21 22 20 19 21 20 17 19 19 28 21 18 16 17 18 17 18 17 16 18 17 16 21 19 19 20 19 16 18 18 18 16 18 19 18 17 17 15 15 15 13 11 10 9 8 8 8 8 6 7 8 7 7 6 6 7 5 4 4 6 3 12 8 5 6 6 4 5 5 5 6 9 9 8 7 7 9 8 6 9 12 11 12 10 8 11 14 15 13
22 22 22 19 21 21 23 24 24 25 20 20 21 24 23 25 15 18 18 14 17 17 18 18 17 17 16 15 19 18 16 21 19 20 18 16 19 19 18 16 17 18 17 17 16 16 16 15 13 11 9 9 7 6 5 6 6 6 6 8 6 7 7 7 5 5 7 5 5 10 7 5 5 5 5 4 5 4 7 10 8 5 7 10 9 4 5 5 7 7 8 7 11 11 11 14 11
18 18 19 20 23 26 20 20 26 18 23 18 16 20 21 21 16 23 19 17 17 17 17 18 19 18 19 18 18 19 19 16 19 18 21 17 14 19 20 18 16 16 16 17 16 16 15 14 12 11 10 9 7 6 6 6 7 6 6 6 6 5 7 7 4 7 6 4 9 5 7 5 4 6 5 3 5 4 5 3 6 12 6 6 7 6 8 6 5 6 7 8 9 7 6 11 13
21 19 19 22 22 19 24 15 22 16 14 18 19 24 19 21 26 19 22 18 18 17 17 16 19 20 19 19 19 18 18 20 18 16 22 21 17 18 17 20 17 16 15 16 15 15 14 13 12 11 10 9 8 7 11 12 8 7 7 6 7 6 8 7 6 7 6 10 7 6 5 4 8 7 6 5 3 5 4 5 5 5 7 8 7 9 8 7 7 8 9 6 7 9 6 7 11
17 16 17 22 16 17 14 24 19 10 11 15 17 17 21 23 20 22 20 21 20 20 20 19 17 19 21 22 20 19 17 16 19 20 23 22 19 21 17 18 17 16 15 15 16 14 14 17 15 13 10 9 10 10 7 6 5 7 6 5 5 6 9 6 8 8 6 9 7 8 6 7 6 5 4 5 6 6 5 6 6 7 8 9 8 8 8 7 10 12 7 7 8 8 9 8 8
17 19 18 20 14 17 21 21 17 11 6 16 18 23 25 24 23 21 21 24 23 22 21 20 20 20 19 18 19 20 18 17 16 13 21 23 27 22 20 21 17 21 19 17 16 15 13 13 14 13 10 7 5 7 8 5 5 6 5 6 4 7 10 9 8 8 5 7 4 5 4 4 5 5 3 3 2 4 4 4 5 6 8 7 7 9 8 7 10 16 10 14 9 11 12 8 6
16 18 20 21 23 22 22 20 15 17 14 16 17 25 27 27 26 25 26 23 25 25 23 21 21 21 22 22 20 18 16 16 17 18 14 22 25 25 22 20 20 18 19 19 16 16 14 14 13 14 11 9 7 7 8 8 6 5 5 6 6 6 9 6 8 7 6 7 5 3 6 10 10 9 7 5 4 5 5 5 4 5 5 6 9 9 10 12 12 13 16 18 14 14 12 9 9
17 18 20 24 21 20 20 18 10 14 15 15 16 22 23 24 26 27 23 23 19 19 24 22 21 23 23 22 20 19 21 22 20 16 19 20 25 26 22 19 20 17 19 19 18 17 16 14 12 14 13 10 10 8 8 7 7 6 5 4 5 5 6 7 7 6 5 5 5 4 8 6 7 8 9 10 10 6 4 3 4 5 7 6 7 8 9 13 12 12 13 16 15 16 17 18 14
17 19 23 22 22 19 25 17 11 8 10 13 19 23 26 25 26 24 23 23 24 23 21 25 27 25 22 20 21 20 19 16 15 17 16 16 21 24 23 21 19 19 18 19 18 18 16 15 14 14 14 12 11 9 10 9 8 8 6 5 6 7 5 5 6 6 5 4 4 6 6 5 5 6 9 9 8 8 8 11 9 5 6 8 9 9 10 10 13 13 15 15 16 20 21 18 15
19 18 19 19 21 19 16 10 11 17 20 23 18 24 24 25 26 26 21 26 27 25 26 26 25 26 26 26 22 19 13 15 13 19 16 14 16 20 22 23 20 19 19 18 18 17 15 16 15 15 14 12 13 12 11 11 11 11 10 11 11 11 8 6 6 5 5 6 7 5 5 4 5 5 5 7 10 8 7 6 6 10 8 8 9 10 11 10 11 11 13 14 14 17 20 17 20
15 22 19 24 22 16 15 16 12 20 22 17 21 19 26 23 17 24 23 23 25 25 26 25 26 27 27 25 23 22 21 19 18 15 18 22 17 18 22 23 23 21 19 15 18 17 16 16 15 17 15 14 15 14 12 10 9 6 5 5 3 3 5 7 5 5 4 5 5 3 4 4 5 4 4 5 6 7 7 6 6 8 10 9 10 10 11 12 13 10 11 12 15 14 15 19 18
26 9 8 13 12 13 16 17 19 22 21 17 20 22 22 24 21 18 21 19 20 22 23 22 23 22 23 22 22 21 22 17 17 17 16 18 20 19 21 22 22 21 17 18 17 17 17 16 16 17 16 15 15 14 13 11 10 9 8 6 6 7 5 9 7 6 4 4 4 4 4 4 5 5 4 6 4 7 7 8 7 7 8 11 13 14 11 11 11 11 10 11 12 15 17 20 18
17 10 19 22 17 14 17 19 20 21 17 21 22 19 21 25 25 24 27 26 21 20 21 21 20 21 21 21 23 21 19 19 20 19 16 15 19 20 20 21 20 20 19 18 17 16 15 15 16 18 17 15 15 15 13 12 9 10 9 9 7 7 7 9 9 7 7 5 4 5 3 4 5 4 6 3 5 6 5 7 8 10 9 10 13 14 13 13 12 12 9 9 11 15 17 17 19
16 12 9 17 13 13 17 20 22 21 23 25 24 20 28 23 20 22 18 16 22 23 21 20 19 18 20 21 20 19 20 20 22 22 20 16 16 19 18 18 19 18 17 17 16 15 15 14 16 20 19 17 16 16 14 12 10 11 9 8 8 8 7 6 5 8 6 6 6 4 4 6 4 6 5 5 4 5 6 6 8 9 10 11 10 14 14 14 12 11 12 11 10 14 15 18 21
14 11 14 19 21 21 18 20 22 23 28 29 23 22 25 28 19 22 18 29 19 18 19 18 19 19 19 19 20 19 21 23 23 22 20 17 16 17 18 19 19 17 15 17 16 17 16 16 17 21 19 17 17 17 15 14 12 11 10 9 9 9 7 7 7 7 8 6 6 5 5 4 4 4 4 6 6 6 6 6 6 8 9 10 13 14 14 15 12 11 11 13 14 14 14 14 16
13 17 21 19 22 19 20 20 19 24 28 22 22 24 21 28 19 20 19 16 18 12 10 14 19 20 20 17 19 20 20 19 22 22 22 19 15 16 17 18 19 19 18 18 16 16 17 17 18 21 20 17 19 17 15 16 14 12 10 11 11 9 10 9 8 8 8 7 5 5 6 5 6 5 5 5 6 6 4 5 6 7 9 9 11 11 14 15 14 15 15 13 13 12 12 14 15
20 19 20 21 23 20 27 24 27 29 27 19 21 21 24 29 23 24 22 13 12 11 12 12 13 18 19 19 19 19 19 20 21 23 20 21 18 17 17 18 18 18 18 18 19 17 18 19 21 21 21 19 19 17 16 16 14 13 13 13 12 11 11 10 8 7 7 7 7 7 5 6 5 6 5 5 3 4 5 6 7 8 8 8 9 12 12 15 16 15 16 15 12 13 14 13 15
21 23 21 23 25 23 24 25 26 27 29 22 26 18 30 20 18 22 23 19 15 14 14 16 16 15 18 20 19 19 18 20 22 24 23 21 23 21 21 19 18 16 18 20 19 17 18 18 20 21 21 19 18 17 17 16 15 13 13 13 12 12 11 9 9 9 8 7 6 6 7 6 6 5 5 5 5 5 7 7 8 9 10 11 11 11 12 14 15 18 17 15 15 15 15 15 15
25 20 26 23 26 28 23 24 23 23 19 6 12 13 15 11 15 17 21 20 20 18 18 16 17 15 16 19 21 23 22 19 22 21 22 23 27 24 23 21 18 17 17 19 18 18 19 18 19 20 20 20 19 19 17 16 15 14 13 13 13 12 12 11 10 9 9 8 6 6 6 5 7 7 8 6 7 7 8 9 9 10 11 11 12 12 14 14 13 16 17 17 17 15 17 17 16
26 23 23 25 25 17 31 22 25 25 24 26 15 19 6 19 12 21 17 19 18 17 15 15 16 15 13 15 16 17 18 22 23 19 19 14 25 24 23 22 20 20 20 17 19 18 18 19 19 20 20 20 20 18 17 16 15 15 13 13 12 11 12 11 10 9 7 7 6 6 6 6 7 7 7 8 7 8 9 10 11 12 12 12 12 14 14 16 13 15 18 17 19 18 17 16 17
14 20 26 23 16 24 21 17 23 18 24 34 22 23 26 20 25 24 25 23 20 18 18 16 17 17 15 16 17 18 18 19 16 21 20 15 21 21 24 21 19 19 21 20 19 19 19 17 17 20 19 19 20 19 18 17 16 15 15 14 13 12 11 11 10 9 9 8 7 7 7 7 7 7 9 8 9 9 9 10 13 14 13 12 12 14 14 15 16 18 19 18 18 18 19 20 18
29 28 22 19 20 19 22 25 18 23 29 28 17 13 17 24 30 16 22 23 26 25 22 20 17 18 20 19 16 17 18 18 17 14 15 17 18 25 24 22 19 18 19 21 21 17 16 14 17 19 19 21 21 20 18 17 17 16 16 16 14 13 12 11 9 10 10 9 9 8 8 9 9 9 9 8 9 10 11 13 14 14 13 15 15 14 15 16 15 19 19 21 20 17 19 20 20
30 28 17 23 21 24 21 24 26 25 27 30 22 22 27 27 29 22 21 20 21 21 18 20 21 20 20 20 20 18 18 16 16 17 17 17 15 22 24 23 22 19 17 18 20 19 17 14 15 18 21 21 23 21 19 18 17 16 16 16 15 15 14 12 11 10 10 10 10 10 9 8 7 8 10 10 11 12 12 13 12 14 14 14 13 13 14 16 17 19 19 22 20 19 23 23 21
27 25 31 24 29 28 28 25 23 25 27 22 23 26 31 26 26 20 22 20 19 21 19 18 19 19 17 19 19 20 19 14 17 19 20 19 17 18 22 22 23 20 20 19 17 19 19 17 16 17 16 18 20 20 18 18 18 17 16 16 16 16 15 14 13 12 12 11 11 11 10 10 10 10 11 12 12 12 13 14 14 15 15 15 15 14 14 16 17 19 21 21 21 21 22 22 23
22 22 25 24 28 20 28 28 30 29 29 28 28 31 28 20 19 19 17 17 15 18 19 19 19 19 22 19 16 15 15 10 13 17 18 17 15 14 17 20 24 22 22 19 23 22 22 20 19 19 19 20 21 20 20 18 18 18 16 17 17 16 14 14 13 13 12 11 11 10 10 10 11 12 13 12 12 14 14 14 17 17 17 16 16 15 14 15 19 20 22 20 21 23 24 24 23
23 24 23 22 21 20 19 30 23 35 34 29 26 32 28 21 14 16 16 14 19 17 20 17 14 15 20 15 14 15 13 10 12 13 15 16 16 16 17 22 23 21 21 23 23 22 22 21 22 21 21 22 23 23 21 20 18 17 17 17 17 14 15 13 13 12 12 12 12 12 11 12 13 13 12 13 16 14 15 16 16 18 18 18 18 19 18 17 21 21 20 17 21 22 22 23 23
Wind_Speed
10 9 8 8 7 7 6 5 5 6 6 10 11 10 8 13 5 4 9 1 3 7 4 7 11 11 12 13 17 16 16 16 10 6 6 5 11 13 10 10 10 11 10 9 8 8 8 9 9 10 10 10 10 10 9 10 11 10 10 11 10 10 11 9 9 9 11 11 10 10 10 11 11 10 9 10 9 9 10 11 11 10 13 13 13 13 13 12 13 13 13 13 14 13 15 16 17
10 9 9 6 6 5 5 6 5 6 8 9 11 12 13 4 6 6 2 6 9 8 5 5 6 8 9 12 13 16 19 16 15 13 11 12 11 10 10 10 12 10 9 8 7 8 8 7 8 10 9 11 10 10 11 10 11 11 11 11 11 9 9 10 9 9 10 11 10 10 10 11 11 11 9 9 10 9 8 8 10 10 9 14 14 14 13 12 12 12 12 12 13 14 15 16 16
9 10 7 5 6 6 7 6 7 8 9 10 10 12 3 5 3 7 4 13 12 9 9 10 8 11 3 9 15 14 12 14 15 14 11 11 9 8 11 12 13 10 8 6 7 7 6 7 9 10 10 10 10 10 10 11 11 11 11 11 11 12 11 9 10 9 9 10 12 10 10 12 12 11 10 9 9 9 9 8 10 10 9 10 13 13 13 12 12 11 12 12 13 15 15 16 15
9 9 9 5 5 6 6 5 9 9 10 9 9 11 13 6 3 11 17 13 12 9 6 9 6 12 4 15 14 15 13 11 13 11 7 9 9 10 12 13 13 9 6 6 7 8 7 8 9 10 10 10 10 11 10 11 12 12 13 12 12 12 12 11 10 10 10 11 11 12 9 11 12 11 10 9 8 8 9 9 9 9 10 10 11 12 12 11 11 11 11 12 13 15 16 16 14
9 9 8 7 7 6 6 7 8 9 11 10 6 6 6 3 16 14 12 11 10 8 6 9 6 9 17 15 10 8 11 14 13 12 9 11 13 13 14 10 10 12 10 10 8 9 8 9 9 10 9 10 10 12 11 11 12 12 12 14 14 13 12 11 10 11 11 12 11 11 10 10 11 12 10 10 9 8 8 8 8 8 8 8 8 9 9 8 9 10 10 12 14 16 17 16 15
9 8 7 7 6 7 6 7 8 11 11 12 12 12 9 12 12 13 9 9 9 6 7 4 6 10 9 13 10 9 7 8 9 11 12 13 18 16 14 10 10 12 11 9 10 7 7 10 10 12 11 9 9 11 11 12 13 14 12 12 13 13 11 10 10 11 12 12 12 11 12 10 10 11 9 9 10 9 8 7 7 7 6 7 8 7 8 7 8 9 10 13 15 16 16 15 14
6 7 6 6 8 5 6 8 10 10 12 15 13 1 5 10 11 6 8 8 5 7 3 8 11 14 11 8 13 11 11 11 9 12 13 15 17 16 14 12 11 11 12 10 9 7 8 10 10 10 9 9 9 10 9 11 13 15 14 13 13 12 11 10 10 11 13 12 13 13 11 11 10 10 11 11 10 10 9 8 8 7 7 7 8 8 10 10 9 10 12 14 14 16 15 14 13
8 8 4 7 5 6 9 10 11 10 10 14 13 5 5 8 7 4 6 6 8 5 7 9 6 9 13 12 11 10 13 12 14 16 18 15 16 17 16 12 11 10 10 10 9 7 9 9 9 9 7 7 9 8 7 9 12 14 15 14 13 13 12 11 11 11 12 11 13 13 11 12 11 11 12 12 11 10 9 8 8 8 7 8 10 11 12 11 11 11 13 14 15 15 15 14 13
8 8 5 8 9 6 9 10 11 13 13 10 2 12 8 9 3 6 7 7 9 6 6 7 7 7 12 16 12 10 11 13 15 16 16 16 17 16 11 12 10 8 9 9 9 6 5 8 9 8 7 7 7 8 8 6 8 11 12 12 12 12 12 11 12 12 11 10 12 12 11 11 10 10 11 12 11 10 9 9 8 8 10 10 11 12 12 12 11 12 13 14 14 14 14 13 12
7 7 6 6 6 10 9 10 11 11 14 11 8 10 6 8 5 4 8 8 6 5 6 5 6 14 12 16 12 9 9 13 15 15 15 16 20 18 15 11 11 11 9 8 7 5 4 7 8 8 7 9 10 11 12 13 7 5 9 10 10 11 11 11 11 11 11 10 10 11 10 10 9 9 10 12 11 10 10 9 8 9 10 11 12 12 12 12 11 12 13 14 13 13 13 12 11
7 7 6 8 8 9 10 9 10 11 17 7 4 5 5 4 6 6 7 5 8 6 9 1 9 12 13 13 11 9 13 13 14 15 15 15 19 17 14 12 11 11 10 9 7 6 5 5 8 7 8 11 12 12 12 11 10 6 7 7 9 10 10 10 11 11 10 10 9 10 10 10 9 9 10 11 11 10 10 9 9 10 10 11 11 12 11 11 11 11 12 11 10 11 11 11 10
8 8 7 8 9 8 9 10 11 10 13 12 4 3 6 4 4 8 9 10 7 9 7 9 7 14 13 12 9 10 13 14 14 14 14 14 14 18 15 11 12 12 12 10 8 5 6 5 3 7 8 10 9 9 9 9 9 6 7 7 8 9 10 10 10 10 10 9 9 9 9 9 9 9 10 10 10 10 10 10 10 10 10 11 11 11 11 10 10 10 10 10 10 10 11 10 10
9 7 8 8 9 9 11 13 11 12 14 10 5 8 5 8 7 9 5 7 7 6 7 5 13 10 12 11 10 12 14 13 13 13 13 12 12 14 15 13 13 13 11 11 10 8 6 4 3 4 6 8 9 8 8 9 9 6 6 6 7 8 9 9 10 10 9 9 9 9 9 8 8 9 10 10 10 10 10 10 9 10 11 12 11 11 11 10 10 11 11 11 11 10 10 9 9
9 7 8 9 8 12 12 11 11 13 11 13 6 9 7 8 7 8 7 6 10 7 8 7 4 14 15 12 11 10 12 14 15 15 12 12 10 10 10 14 13 13 12 11 10 8 7 6 4 4 5 3 5 7 7 9 8 6 6 5 7 7 8 9 9 9 8 9 9 9 9 8 8 8 9 9 9 8 9 9 9 10 11 12 11 11 11 10 11 11 12 11 10 10 10 9 8
10 7 7 8 9 9 11 11 11 12 4 9 11 11 8 1 6 3 7 8 8 7 11 11 9 5 9 13 11 12 13 16 14 13 10 10 11 9 11 8 9 12 12 12 10 9 8 6 5 4 3 4 5 4 4 6 7 5 5 5 6 7 7 8 8 8 9 9 10 9 9 9 8 9 9 9 8 9 10 10 9 9 11 12 12 11 10 10 11 11 12 11 10 9 9 9 8
9 8 7 8 9 10 8 11 10 12 9 5 14 11 9 9 4 7 5 12 10 10 4 6 4 9 7 12 15 17 18 16 11 10 10 11 10 9 11 9 8 8 7 10 9 9 7 7 6 3 3 4 4 5 5 6 6 5 7 7 5 6 7 8 8 8 9 9 10 9 9 7 7 7 10 9 9 9 10 8 9 9 11 12 12 12 11 10 11 11 10 10 10 10 10 9 9
8 7 8 8 10 9 8 8 6 9 0 13 10 10 9 9 4 1 8 12 8 9 4 8 7 8 16 18 19 19 16 12 10 9 8 7 8 8 7 6 5 5 4 5 7 6 9 8 7 4 3 5 5 4 5 5 5 7 4 6 6 5 6 7 8 8 7 7 8 8 8 6 5 5 7 6 10 7 8 10 9 9 11 12 12 12 11 10 10 10 9 9 10 10 8 8 8
8 8 8 9 9 10 5 13 6 2 6 11 6 10 8 10 11 6 5 6 4 4 6 8 11 13 14 16 17 16 15 11 9 8 6 6 5 7 8 7 7 5 4 3 5 6 8 8 7 6 2 3 4 3 3 5 4 4 4 5 5 5 4 5 6 6 6 5 7 6 5 5 5 4 5 8 6 7 7 10 10 9 11 12 12 11 11 9 8 8 6 7 8 9 11 5 4
8 7 8 10 9 8 12 8 12 1 6 10 4 7 8 8 12 8 9 8 8 7 8 8 11 14 15 15 16 16 11 9 8 6 7 7 5 7 6 5 7 7 5 3 3 3 4 2 9 8 6 4 4 5 3 5 6 4 4 3 3 5 6 6 5 5 5 5 7 6 4 3 4 4 4 7 6 7 8 10 10 10 10 12 12 10 10 10 7 4 4 5 9 10 7 5 5
9 9 9 10 12 12 9 2 3 8 9 8 7 7 7 10 10 11 10 12 7 6 9 10 12 13 15 15 15 13 11 9 6 6 5 7 9 8 6 6 4 5 6 4 3 3 3 3 6 6 7 7 4 2 3 3 4 4 1 2 0 1 2 4 4 4 3 4 7 4 3 2 5 4 5 2 7 3 4 8 11 11 10 11 13 9 9 9 10 6 6 5 4 5 5 5 6
8 10 10 11 2 12 13 4 4 5 8 6 1 3 7 13 8 8 9 10 9 8 11 13 14 14 16 15 15 11 9 8 7 4 6 7 7 5 5 5 4 4 5 4 2 2 2 2 1 1 5 6 6 4 6 5 3 4 3 2 2 1 0 0 2 1 3 5 5 4 4 5 3 5 4 3 2 2 3 5 5 6 5 5 9 6 5 6 5 6 4 4 4 5 7 6 5
6 11 15 16 7 12 11 3 3 2 2 3 3 5 5 8 6 8 8 10 5 5 11 15 15 15 17 15 13 11 11 9 8 9 8 7 8 8 5 4 3 5 6 4 2 3 5 5 2 2 1 3 7 5 6 5 4 4 4 3 1 3 3 3 2 2 2 4 4 5 6 5 5 3 3 1 3 1 4 4 5 5 5 6 7 6 5 6 5 6 5 6 6 6 6 7 7
9 10 14 13 8 8 9 3 4 1 1 8 4 4 5 9 5 4 6 8 10 11 15 9 9 16 17 12 11 10 11 9 8 9 9 7 8 7 6 5 4 5 4 4 3 2 3 5 5 3 3 1 2 9 6 5 6 5 4 4 3 3 2 2 2 4 3 3 4 8 6 2 2 3 4 4 2 2 2 3 4 4 5 5 6 5 6 8 7 7 6 6 6 7 8 3 2
10 9 6 11 5 8 5 9 5 5 8 7 5 2 9 7 6 7 9 5 11 12 7 7 11 15 15 12 9 9 9 9 8 9 8 7 7 6 6 7 6 5 5 4 3 2 2 5 6 5 4 3 3 7 6 6 5 5 4 3 3 3 3 3 3 2 3 5 6 3 3 3 2 2 2 2 2 1 4 6 4 5 6 6 7 5 6 7 6 6 6 6 7 7 10 4 4
10 11 10 8 4 8 4 2 3 4 6 2 5 2 2 5 7 4 11 9 13 9 6 4 11 13 12 8 10 9 8 8 9 9 7 8 8 6 6 7 6 5 5 4 3 3 4 4 4 5 2 2 3 2 8 7 6 6 5 3 2 1 3 3 4 4 4 4 3 3 2 4 3 4 6 4 3 4 5 5 6 5 6 7 7 6 5 6 6 7 8 8 7 8 3 3 3
10 12 9 8 5 6 3 4 4 3 5 2 4 6 7 8 5 4 3 11 7 8 5 6 9 13 12 10 8 8 8 7 9 10 9 8 7 8 8 8 7 6 5 4 3 3 3 5 5 5 5 2 1 2 5 4 3 7 5 4 3 3 3 3 3 3 2 4 2 3 3 4 3 3 3 2 4 4 2 4 4 7 6 5 5 6 4 5 4 5 4 4 4 3 4 3 2
2 11 13 3 4 8 5 6 7 7 6 7 8 8 10 10 2 7 8 12 7 6 7 7 8 11 11 10 8 7 10 7 9 9 9 7 7 7 8 8 8 8 6 5 4 4 2 6 5 5 6 6 3 5 4 3 3 4 5 4 4 3 3 3 3 3 2 3 2 1 2 2 5 4 2 4 3 3 3 2 4 6 6 4 3 3 3 5 3 2 5 5 5 3 4 5 4
6 10 5 5 7 4 4 7 10 6 8 5 5 10 10 11 10 9 10 16 8 8 8 7 9 9 10 11 10 8 8 8 10 9 11 9 7 7 7 7 7 7 6 5 4 3 6 6 7 5 4 3 6 4 2 2 3 3 2 3 3 5 4 3 1 1 2 2 5 1 1 2 3 5 4 3 4 2 3 3 6 6 4 3 3 8 9 4 6 6 7 5 4 4 1 4 3
6 5 8 9 7 7 10 10 9 7 8 10 7 9 11 12 11 10 15 11 12 7 7 9 9 9 9 12 10 9 10 10 9 9 10 8 8 7 8 9 8 7 5 6 5 5 5 5 4 4 4 3 4 4 3 3 2 3 2 3 3 1 4 4 4 5 2 1 2 3 3 3 3 2 5 3 2 3 5 4 3 3 3 1 3 2 7 8 5 6 5 3 6 3 2 5 6
10 7 7 10 10 11 13 12 11 9 7 8 2 6 8 14 15 13 12 9 8 8 8 9 9 9 10 11 9 10 10 11 10 9 10 8 10 8 10 8 8 7 6 5 6 5 4 3 4 3 4 5 4 3 4 3 2 1 3 4 2 2 2 4 3 4 4 4 4 2 1 3 3 3 1 5 4 3 5 5 3 2 3 3 2 3 4 5 8 4 3 4 3 1 2 1 4
8 9 9 8 9 10 15 13 13 11 7 8 5 7 7 12 15 18 14 13 10 9 9 9 9 10 9 11 9 10 12 9 11 10 10 8 10 9 10 8 9 8 7 6 6 7 5 5 3 4 4 4 4 4 3 3 3 4 4 3 3 3 1 1 3 3 5 3 6 5 4 3 2 4 6 4 4 5 5 3 5 3 5 4 3 5 3 4 9 5 2 2 1 4 3 4 3
7 8 9 9 9 9 14 18 14 11 11 10 7 7 10 14 19 16 14 12 10 9 10 9 9 9 8 10 9 11 11 10 12 11 11 9 10 10 9 9 11 10 9 8 8 7 7 5 5 5 4 4 4 3 2 2 2 3 3 3 2 2 2 2 3 2 2 3 3 4 2 2 0 1 2 2 2 2 2 2 2 2 4 2 5 4 2 1 3 3 7 2 2 5 7 3 4
9 9 8 9 8 10 1 16 13 14 10 12 12 7 7 9 3 18 14 12 10 9 10 10 10 11 9 10 8 8 11 10 11 12 12 8 10 11 9 7 11 11 10 9 8 8 7 7 7 5 5 5 3 3 4 2 2 3 3 2 3 2 3 4 2 2 1 4 1 6 2 1 2 2 1 3 2 1 1 2 3 1 3 3 2 3 4 5 5 4 4 6 4 5 6 6 6
8 9 9 9 10 8 8 14 13 16 11 9 12 9 11 13 7 9 10 7 9 9 9 10 8 9 8 8 10 8 9 11 10 10 11 8 10 12 9 8 12 11 10 10 9 8 8 7 6 4 5 4 3 2 2 3 2 3 3 3 2 4 3 2 3 2 4 1 3 4 2 1 1 1 1 2 3 2 1 2 2 2 2 2 1 1 2 3 4 2 3 4 3 5 4 4 2
7 8 9 8 11 15 11 6 13 11 14 10 8 10 11 12 4 14 12 9 9 9 8 10 10 10 10 8 9 11 9 9 10 10 13 9 10 12 11 9 10 11 9 10 9 7 7 6 5 5 4 3 3 2 2 2 3 3 3 3 3 2 4 3 2 4 2 2 4 2 3 1 1 2 2 1 3 1 1 1 2 3 2 2 3 2 2 2 1 1 1 3 5 4 2 3 4
11 11 6 7 9 8 10 3 11 10 7 8 8 10 9 10 13 10 13 11 10 9 8 6 9 10 10 10 10 9 9 10 9 10 14 11 8 10 10 10 8 9 9 10 10 9 8 7 5 5 4 4 4 3 5 6 3 4 3 2 3 2 4 3 2 3 3 5 2 2 1 1 3 2 2 1 1 3 1 3 2 2 2 2 1 2 1 2 2 2 3 2 2 3 3 3 2
9 9 9 11 7 8 5 13 10 4 4 7 8 9 11 11 11 12 9 13 11 10 10 8 8 9 11 11 10 9 8 8 12 11 15 14 11 13 10 11 9 9 9 10 9 9 8 8 8 6 4 4 4 4 1 3 2 3 3 1 1 3 3 2 4 4 2 4 2 2 2 2 1 1 1 1 2 3 2 4 4 4 3 2 2 2 3 3 4 4 2 0 3 4 3 2 4
9 9 9 9 6 5 9 10 7 3 1 5 6 10 13 14 13 12 13 14 14 13 11 11 11 10 9 11 12 12 9 7 7 8 14 16 14 15 12 12 11 12 9 9 9 8 8 8 8 6 5 4 2 4 4 2 2 2 1 2 1 4 3 3 3 3 2 4 2 2 1 0 2 2 0 0 0 1 1 1 1 3 5 4 3 2 3 3 4 4 2 4 4 3 3 3 1
8 8 8 10 8 8 13 9 9 9 7 5 8 10 13 16 16 15 14 12 12 13 13 10 11 12 10 10 9 7 7 7 7 8 7 14 16 17 13 12 12 11 11 10 9 8 7 8 6 7 5 3 2 4 4 3 3 2 2 2 2 2 3 1 3 3 2 2 3 1 4 5 4 3 3 2 2 2 2 3 2 1 1 2 4 3 3 4 4 6 5 5 5 3 3 3 4
6 7 8 9 9 10 7 6 4 8 5 4 5 10 9 12 14 16 14 12 10 12 13 11 10 11 11 11 10 8 8 8 9 7 9 10 16 16 13 11 12 10 11 10 9 9 8 7 6 8 6 5 4 3 4 4 4 3 2 2 1 2 3 4 4 3 2 2 1 2 4 2 2 2 3 4 4 3 2 0 1 2 2 2 2 3 3 5 4 5 5 7 6 6 6 6 6
6 9 11 10 10 8 11 3 5 4 3 5 8 9 10 12 13 11 12 11 10 9 12 15 13 13 10 7 8 8 10 10 9 7 7 8 14 15 14 12 11 11 11 11 10 9 7 9 7 9 7 6 5 4 5 4 4 3 2 1 2 0 2 2 2 3 1 2 1 3 2 3 1 1 3 4 3 3 5 5 5 2 1 2 3 3 2 3 3 4 6 6 7 8 9 6 4
8 10 11 11 13 12 10 3 5 3 5 8 9 7 7 12 15 14 10 11 13 13 14 13 14 15 15 14 12 10 7 2 2 5 8 8 11 13 14 13 11 10 11 11 11 10 9 9 8 8 7 6 6 5 5 5 4 5 5 4 5 6 3 3 3 2 2 2 2 1 1 1 1 0 0 2 4 4 2 2 2 3 3 4 3 3 3 3 4 4 4 6 8 10 10 8 8
6 9 10 15 15 10 8 10 4 7 7 4 11 7 7 10 8 14 12 12 15 13 14 15 14 13 15 14 13 11 8 6 6 6 6 10 9 11 14 15 12 11 10 9 11 10 9 9 8 9 7 6 7 6 6 5 5 3 2 2 1 1 3 3 2 2 1 2 2 1 1 1 2 2 2 1 1 2 3 2 2 2 3 4 4 4 4 4 4 3 5 5 7 8 8 9 10
9 5 4 8 6 8 8 9 9 8 10 2 12 7 6 8 8 10 11 12 12 14 15 14 13 13 14 13 13 10 10 9 7 8 6 11 12 11 12 14 13 11 10 9 10 10 10 10 9 10 7 7 7 7 6 5 4 3 3 2 1 2 2 4 3 2 1 0 2 1 2 1 1 0 2 2 1 1 2 3 3 2 3 3 4 5 5 4 4 3 3 5 5 6 8 10 10
4 3 8 13 11 6 7 9 8 9 8 8 9 11 7 8 11 14 14 14 13 10 11 12 12 11 12 10 10 11 11 10 9 8 7 6 12 12 10 13 13 13 11 10 10 10 9 9 10 10 9 8 8 8 7 6 5 5 4 3 3 3 2 4 2 3 3 2 1 2 1 1 2 1 1 1 2 1 1 2 2 3 4 4 4 4 5 5 5 5 4 3 4 6 6 8 8
9 6 2 8 7 5 8 8 9 9 9 10 12 9 9 8 8 9 11 7 9 11 12 12 12 11 11 10 10 10 10 9 11 11 10 6 8 11 10 11 12 11 10 10 9 9 9 8 10 12 10 8 8 9 7 6 4 6 5 4 4 4 3 3 2 3 2 3 2 1 2 2 2 3 2 1 0 1 0 1 2 2 3 5 4 5 6 7 7 5 5 5 5 5 5 7 9
9 3 6 7 10 9 8 8 8 8 10 12 14 13 11 10 6 8 6 9 7 10 9 9 10 11 10 9 11 10 11 12 12 12 11 8 8 11 11 11 11 10 9 10 9 9 8 9 9 13 11 8 9 9 8 7 4 5 4 4 4 4 3 3 2 3 3 2 2 2 2 1 1 0 1 2 3 2 2 2 1 2 2 3 4 5 6 6 5 4 4 5 7 7 6 6 8
5 5 7 7 9 8 8 7 8 8 9 11 13 14 12 11 7 8 7 3 11 6 5 9 11 12 11 8 11 11 11 11 13 13 12 11 9 10 11 10 10 10 10 10 9 9 9 9 9 12 11 10 10 9 8 7 6 5 4 5 4 4 3 3 3 4 3 3 1 1 2 1 2 2 1 1 2 3 1 0 2 2 3 3 4 4 4 6 5 6 7 6 6 7 6 6 5
8 7 7 8 7 4 8 8 9 10 8 8 10 12 11 12 9 12 12 7 5 3 3 2 6 9 11 11 11 10 9 10 11 11 11 12 11 10 11 10 10 9 10 11 11 9 9 9 10 12 12 10 11 9 8 8 7 6 5 6 5 4 4 4 3 2 3 2 2 2 1 1 1 2 2 1 1 0 0 2 2 3 3 3 3 3 3 4 5 6 6 7 7 5 5 6 5
9 9 8 8 7 7 7 9 7 9 12 11 12 11 11 10 7 10 12 12 8 7 7 6 9 6 9 11 10 9 9 11 10 12 11 12 11 12 13 11 11 9 11 10 10 9 9 8 10 12 11 10 10 9 8 8 7 6 5 5 5 4 4 4 3 3 3 2 3 2 2 2 1 0 0 0 1 1 1 2 2 3 4 4 4 4 4 4 5 6 6 7 7 6 6 7 8
10 10 10 9 9 7 6 7 7 8 6 0 7 3 3 4 3 7 12 12 10 9 9 7 6 9 4 9 10 11 10 8 9 10 11 13 16 15 14 13 11 10 9 9 8 9 9 9 10 11 11 11 11 10 8 8 7 6 6 5 5 5 4 4 3 3 4 3 1 2 2 1 1 1 2 2 2 2 1 2 2 3 4 5 5 5 5 5 6 6 6 7 7 7 8 8 8
10 9 11 9 8 6 11 7 9 10 8 8 5 4 1 5 4 8 9 9 11 11 9 7 8 7 5 6 7 8 9 11 9 8 7 7 15 15 12 13 12 12 13 9 10 10 9 9 10 11 11 11 10 10 9 8 7 6 6 6 6 5 5 4 4 2 3 3 2 2 2 1 1 1 1 1 1 1 2 2 3 3 4 4 5 6 5 5 5 6 6 6 8 6 8 9 8
3 6 10 9 8 11 6 5 9 10 8 10 4 6 9 8 10 12 14 14 10 10 11 9 7 8 5 4 5 7 7 8 7 10 8 4 14 12 13 11 9 10 11 11 11 10 10 9 9 10 10 10 11 10 9 8 7 7 7 6 5 5 5 5 4 4 3 3 2 2 2 2 1 1 1 1 2 2 2 2 3 4 4 3 4 5 6 6 6 6 7 7 8 8 8 9 8
10 10 9 10 10 8 5 7 4 7 9 7 5 4 6 8 6 5 12 14 13 15 14 12 7 6 8 8 5 6 8 8 9 5 5 7 11 15 13 12 11 11 12 13 13 11 9 8 9 10 10 12 11 11 10 9 9 8 7 7 6 5 4 4 3 3 3 3 2 2 2 2 2 2 2 2 1 2 3 5 5 5 4 4 5 5 6 7 6 6 7 8 8 8 8 8 9
13 13 8 7 4 8 7 4 7 7 8 7 7 12 11 11 11 9 12 12 9 10 10 9 7 6 6 7 10 10 7 5 5 6 4 4 5 14 15 15 14 12 11 12 13 12 11 8 9 10 11 12 13 11 9 8 8 7 7 7 7 6 5 4 3 3 3 3 4 3 3 3 2 1 2 2 3 4 3 3 3 4 4 4 4 4 4 5 6 6 6 7 8 8 8 9 9
12 13 14 10 10 10 9 4 7 7 9 7 9 12 9 10 10 10 11 9 7 9 6 9 10 7 4 4 5 5 6 6 6 6 7 6 6 9 14 14 14 12 11 9 11 11 13 11 10 9 9 9 11 11 10 9 9 8 7 7 7 7 7 6 5 4 4 4 4 3 3 3 3 2 3 3 4 4 4 4 4 4 5 5 5 5 5 5 5 6 6 7 7 8 10 11 10
9 8 10 7 6 5 8 7 10 9 8 9 9 10 8 7 6 9 10 8 7 5 7 5 7 8 8 7 4 4 3 4 5 4 5 6 5 4 10 12 12 12 12 10 11 13 13 12 11 11 11 10 11 11 10 9 9 9 9 9 8 7 7 6 5 5 4 4 3 3 3 3 2 3 4 5 5 4 4 4 5 5 6 6 5 5 4 4 4 6 7 7 8 10 12 11 11
10 9 10 9 10 8 4 7 9 8 9 6 7 10 8 7 5 7 7 7 9 10 10 8 9 6 2 7 3 6 4 3 2 3 4 5 4 5 6 10 10 11 10 12 14 13 13 13 12 12 11 11 12 12 10 10 9 8 9 9 8 7 6 5 5 5 5 4 3 3 3 3 4 5 5 4 5 5 5 6 6 6 6 6 6 6 6 5 6 6 8 7 7 8 11 12 11
Wind_Direction
278 262 256 255 254 269 280 219 251 194 232 244 260 256 268 230 155 181 112 46 170 44 56 66 31 58 52 63 78 67 46 47 31 51 98 107 64 89 101 100 106 106 111 122 118 113 97 86 89 92 92 95 97 101 109 117 118 129 139 134 134 131 132 129 126 124 120 114 114 117 119 115 114 110 109 110 110 114 118 120 118 123 128 124 119 116 117 116 114 116 115 115 115 117 113 110 109
276 267 245 250 257 263 223 214 256 257 213 246 243 257 254 80 39 224 196 72 71 102 68 86 94 61 80 112 95 75 58 61 67 86 109 102 93 87 89 95 83 76 92 115 121 107 100 87 90 97 95 98 102 105 110 116 117 125 139 135 129 129 126 129 126 128 126 119 118 117 119 117 117 115 115 116 116 112 114 118 121 120 122 126 122 118 117 118 117 116 117 117 119 118 115 111 113
293 297 265 211 241 242 297 238 245 252 251 239 248 236 192 144 216 204 171 103 109 103 80 56 57 21 212 99 70 64 77 78 88 103 100 103 108 85 92 92 90 93 110 114 109 111 106 89 80 87 91 96 105 113 114 122 120 116 121 128 125 125 128 130 139 133 128 121 122 120 121 120 121 119 121 122 120 118 115 117 121 121 129 124 123 122 121 121 122 121 120 119 120 119 116 113 116
284 278 280 233 239 203 242 227 239 257 257 261 269 242 184 190 199 93 87 105 100 105 125 126 93 17 56 97 94 92 80 56 58 79 99 94 78 99 92 83 106 120 122 114 105 113 109 104 97 101 112 105 111 124 126 126 127 125 129 129 128 132 135 144 145 138 133 125 126 129 125 123 124 121 121 115 116 123 118 117 118 127 128 125 123 122 122 124 125 125 123 121 122 118 115 116 117
275 268 253 256 274 224 230 235 245 239 249 254 246 39 96 232 89 97 101 111 119 132 135 99 115 84 45 50 77 84 91 91 84 83 91 86 96 87 86 97 102 114 113 114 114 118 109 96 92 87 92 111 118 129 137 133 132 136 138 131 134 139 145 146 149 138 135 128 119 118 124 127 126 124 123 119 117 122 118 118 128 131 129 132 118 121 121 124 126 125 122 123 123 119 116 118 117
249 256 239 251 237 351 297 251 238 241 251 260 274 8 29 99 113 104 120 117 113 102 87 177 126 102 66 52 44 60 83 86 83 80 86 78 80 87 104 106 109 103 110 107 118 118 117 95 82 76 73 86 108 131 137 140 138 139 144 138 136 142 144 146 150 138 134 126 123 125 125 129 128 124 121 123 125 118 110 119 120 112 110 117 120 113 119 116 119 120 121 122 123 119 119 118 119
239 234 205 222 258 251 256 249 248 243 239 250 265 27 276 102 96 131 135 118 101 100 195 113 95 108 101 108 69 58 77 90 85 86 82 89 96 98 98 99 98 102 112 118 115 108 103 81 76 80 91 99 93 115 141 140 142 143 146 146 139 139 140 143 143 137 128 126 124 126 126 126 126 121 121 124 123 122 120 114 112 110 109 110 108 106 105 106 109 110 118 123 122 122 121 123 120
246 270 191 218 237 206 234 253 255 252 243 236 240 159 249 88 92 136 128 173 138 178 201 113 186 86 93 96 96 83 83 87 102 102 88 85 91 96 95 97 101 97 107 119 119 116 114 88 82 80 80 75 87 90 112 139 143 145 150 147 141 138 143 143 140 133 129 129 128 125 123 121 124 123 119 119 114 118 121 119 116 116 109 106 104 105 107 111 113 121 123 127 124 126 125 124 124
237 231 268 261 249 237 243 239 247 252 270 286 7 58 27 99 135 163 123 199 153 156 148 183 121 147 97 97 94 97 77 87 89 91 101 103 99 97 100 106 106 108 106 121 122 117 112 112 103 90 77 75 75 82 73 102 126 140 143 144 139 139 142 142 142 134 131 130 129 127 124 118 114 113 113 113 112 111 116 115 111 108 109 111 108 107 114 116 120 121 126 128 130 130 126 126 128
237 229 201 238 250 246 243 237 243 242 250 223 248 166 163 123 213 145 200 131 135 145 134 75 127 97 116 105 118 114 113 105 97 93 98 105 104 105 107 106 109 117 118 121 124 109 100 105 102 90 71 62 51 47 42 38 38 115 128 136 134 134 137 140 137 136 132 132 129 126 121 108 109 111 114 115 113 108 109 106 107 110 115 115 112 110 114 118 123 127 130 132 134 130 129 130 130
238 200 259 257 237 250 244 244 230 243 249 171 147 80 209 125 226 196 121 201 133 141 89 310 126 118 105 89 83 102 119 111 101 95 91 91 104 109 112 112 106 105 110 115 126 122 113 99 97 79 74 65 63 59 52 48 52 71 88 115 125 124 128 129 132 133 133 131 127 126 121 115 113 116 115 113 112 107 107 108 107 114 117 119 113 114 116 124 127 133 134 130 128 133 128 130 131
250 227 197 239 249 243 240 250 240 230 236 127 147 134 190 224 226 226 144 202 161 110 196 202 132 121 115 118 121 135 116 105 106 106 101 98 105 119 113 111 105 104 106 111 113 122 116 124 134 103 76 73 76 87 75 55 50 87 99 107 112 118 124 128 130 131 130 130 127 123 120 117 115 115 111 110 109 112 113 114 115 122 131 123 118 116 119 124 131 129 129 127 134 130 129 131 131
254 250 220 239 250 239 253 257 261 246 225 130 180 176 162 223 190 243 168 84 159 132 165 222 125 165 129 120 127 124 116 112 115 115 109 97 86 99 116 114 116 111 110 108 109 123 131 120 116 137 96 96 88 76 74 62 43 53 89 105 115 120 120 128 131 132 129 125 121 118 120 121 119 114 115 115 118 120 119 117 118 126 135 128 124 122 126 131 131 134 134 138 135 128 129 128 129
240 241 256 246 243 263 261 263 258 251 222 116 199 153 163 213 178 224 99 202 124 224 118 98 156 84 103 124 138 133 119 124 115 107 105 103 97 89 99 123 120 113 109 106 111 114 122 137 136 125 121 154 113 104 83 62 50 52 93 99 112 115 125 125 129 126 126 122 122 125 125 123 121 120 122 119 118 122 123 123 123 126 132 131 126 126 128 134 139 139 138 142 135 131 130 129 128
247 240 259 274 274 261 244 254 275 287 278 143 151 145 155 157 162 296 184 196 170 79 78 43 36 165 155 148 149 133 133 117 106 104 101 102 103 90 86 73 104 120 113 109 108 108 111 108 123 128 134 140 116 118 113 91 65 68 104 109 114 123 120 124 127 131 128 129 130 132 135 134 132 132 128 122 128 134 135 128 126 125 132 134 129 125 129 138 143 143 142 140 139 133 136 136 141
240 257 257 263 258 258 253 254 254 290 298 137 111 130 176 131 221 193 114 25 92 107 169 118 41 345 149 171 135 127 115 112 106 105 109 113 114 113 101 90 72 59 96 117 110 116 109 110 112 116 128 123 127 138 134 128 106 80 134 123 116 121 127 128 130 137 135 135 139 140 139 144 142 148 138 136 142 146 140 137 132 128 133 138 131 129 135 145 148 150 148 144 144 148 150 153 156
233 252 262 249 256 249 261 259 249 255 160 97 146 133 206 145 149 6 72 100 154 128 171 94 89 28 70 93 113 114 110 111 120 129 130 132 137 117 112 112 89 82 55 73 128 117 112 116 105 100 126 127 136 130 126 110 122 125 118 105 120 122 128 134 140 139 137 137 141 142 148 158 166 156 153 154 152 157 148 137 139 136 132 139 138 136 137 147 153 153 154 159 159 160 154 159 164
228 224 241 251 256 248 243 262 247 69 75 97 198 148 218 163 179 121 230 122 92 131 109 92 91 97 96 103 107 111 120 127 133 138 155 150 153 130 130 132 125 113 94 74 26 99 128 125 123 119 100 114 118 142 148 136 134 152 158 154 151 138 136 141 152 161 161 155 156 153 166 180 171 157 185 172 165 166 147 144 141 143 135 141 146 146 140 141 149 151 159 170 164 165 164 162 170
234 231 233 248 235 248 264 344 2 63 174 135 218 141 246 179 173 126 208 193 143 183 144 156 118 110 113 114 116 120 128 131 152 148 157 179 118 98 99 96 111 115 108 84 80 59 6 60 134 133 110 96 118 134 124 141 156 154 179 170 166 170 172 175 177 185 181 177 177 173 190 173 181 174 201 173 184 165 149 151 147 148 144 147 150 153 148 137 131 140 161 185 185 179 171 185 172
221 251 228 236 257 269 278 207 21 17 347 125 193 184 221 132 192 119 219 198 186 191 162 175 152 142 138 127 125 128 129 142 145 154 155 100 92 87 96 100 81 94 102 79 60 36 45 30 30 54 112 103 76 105 141 113 138 129 127 77 240 153 191 188 187 195 191 198 191 173 190 56 68 87 12 253 215 115 142 154 152 149 152 152 154 157 156 147 143 157 195 208 211 204 206 209 177
180 232 245 234 124 318 237 193 92 315 324 70 350 120 224 133 204 157 204 219 183 219 196 180 170 166 144 132 126 129 135 136 137 145 97 102 105 114 95 104 117 123 98 109 103 77 77 34 63 92 95 120 115 86 75 64 72 73 76 83 26 343 87 28 293 240 186 204 195 177 86 70 65 40 91 293 331 132 168 167 159 155 160 163 157 164 164 163 165 187 198 206 231 219 225 219 184
217 225 243 262 319 260 42 314 38 164 227 358 140 178 219 108 212 166 208 237 198 199 230 175 185 162 134 130 128 136 138 141 147 141 107 112 92 85 101 88 92 86 107 92 90 153 165 147 97 33 93 109 126 118 117 110 82 70 68 54 61 40 11 347 327 342 9 33 356 78 84 61 50 67 31 125 246 306 200 197 177 168 181 174 182 165 178 157 188 200 199 201 220 236 227 236 149
247 220 243 246 268 300 41 347 33 281 98 258 136 193 269 162 202 204 217 226 69 46 24 86 117 130 125 126 133 135 147 148 154 131 125 113 109 129 137 146 128 107 98 102 102 48 21 86 129 137 57 44 326 128 127 119 112 81 52 44 51 45 2 353 7 336 336 27 48 78 102 122 145 167 174 248 221 209 253 224 197 184 190 188 193 188 179 168 193 187 201 202 214 229 244 184 164
234 248 213 232 220 274 80 35 18 252 262 242 249 263 238 139 220 195 241 135 99 69 75 88 99 113 126 132 138 143 147 156 146 125 138 132 128 108 83 87 83 89 101 112 111 90 68 69 56 50 39 349 9 112 99 122 115 117 98 70 44 27 30 15 20 9 343 31 52 54 117 139 119 76 204 219 271 206 239 219 236 203 195 194 198 217 183 176 199 185 203 213 215 224 230 159 205
221 245 269 311 125 225 128 110 243 253 249 289 33 186 248 154 231 163 208 220 90 101 110 122 120 125 128 139 145 145 150 153 144 130 127 121 103 111 107 91 92 94 95 93 90 82 78 64 50 59 73 338 44 330 138 125 118 117 127 124 102 60 59 26 359 359 43 56 118 197 138 107 131 173 194 190 219 191 213 226 246 268 223 194 197 221 190 177 206 180 199 218 212 214 162 192 142
224 258 243 224 208 243 169 195 238 160 243 261 220 227 230 233 237 240 260 233 130 128 178 125 142 143 143 148 148 151 144 157 127 123 118 118 126 120 114 111 111 108 101 95 90 89 98 96 96 83 26 19 116 335 32 36 103 132 117 112 136 106 72 35 17 7 22 124 165 244 133 137 151 190 193 151 223 227 194 192 240 264 265 228 193 206 184 180 224 186 241 245 231 220 167 182 166
173 220 247 4 184 239 157 239 205 211 232 210 232 216 232 239 189 223 235 259 135 153 191 173 170 146 154 147 149 159 141 152 130 123 122 133 134 128 129 137 128 127 129 122 113 116 130 116 89 91 69 356 337 77 20 73 58 16 112 140 143 118 113 70 26 340 350 53 74 94 151 156 154 205 180 162 239 221 230 164 225 257 287 288 344 296 210 174 214 196 229 238 257 234 191 144 168
241 270 238 230 248 206 197 218 240 187 221 225 217 249 248 239 199 231 228 221 168 176 197 173 198 156 149 152 156 159 149 139 135 131 137 143 148 140 141 119 122 118 119 116 102 71 53 64 78 71 71 25 355 92 109 47 27 104 8 111 96 117 145 141 138 224 0 43 95 36 281 160 189 174 188 196 192 212 241 243 205 208 270 354 37 333 331 276 186 211 216 232 259 255 190 120 136
265 236 264 228 216 215 221 219 223 172 241 191 217 253 248 240 222 206 237 235 141 184 197 198 183 167 164 149 162 159 158 149 148 149 144 157 140 155 129 124 134 134 103 97 97 92 90 89 80 81 53 46 53 25 49 72 321 65 99 71 79 146 165 151 173 124 55 57 85 132 237 201 163 207 177 190 214 195 238 228 212 164 143 56 125 263 285 304 280 209 232 233 223 236 186 151 172
256 252 251 253 218 222 218 212 222 188 232 154 160 245 232 231 230 213 216 126 160 183 210 199 180 177 166 151 170 161 158 162 154 159 153 167 141 150 127 146 135 121 124 124 124 117 107 91 111 94 96 81 64 45 31 49 354 147 83 80 63 307 63 141 113 112 157 183 146 113 335 295 195 160 287 156 195 250 222 219 237 169 134 179 160 243 228 259 275 247 222 225 255 235 247 209 132
239 243 221 254 249 233 209 201 201 208 145 160 174 255 265 264 227 210 190 168 161 205 212 196 194 175 172 150 176 167 157 180 160 162 163 162 143 137 140 147 132 129 126 133 131 128 131 124 109 104 102 80 74 57 37 76 29 39 49 53 58 296 166 82 86 153 171 159 131 158 222 235 287 137 170 178 167 176 252 230 204 189 153 155 183 216 183 191 252 287 223 250 310 309 264 208 171
235 242 226 220 250 262 248 178 188 200 143 206 197 257 258 265 272 204 144 166 174 211 210 191 206 169 176 158 181 170 163 180 162 171 161 151 145 139 150 154 135 129 135 136 136 142 135 131 123 118 112 107 105 99 94 80 71 75 81 70 93 349 15 61 82 11 358 125 142 140 110 331 18 247 127 114 163 185 225 245 222 182 128 190 196 212 225 207 352 327 289 232 168 254 262 204 157
214 232 246 234 217 255 125 150 177 197 180 185 207 247 255 254 69 109 146 170 182 212 194 192 203 173 180 163 176 180 160 180 173 171 160 157 147 142 152 157 130 135 136 142 147 146 142 135 139 145 130 129 126 134 141 140 162 115 101 108 125 73 29 13 67 198 132 77 36 83 101 39 322 357 83 113 81 60 26 337 281 268 162 192 220 178 179 201 172 232 238 256 195 238 246 259 173
214 205 244 257 245 222 216 178 189 194 216 202 189 231 264 277 114 130 134 183 184 217 200 191 200 166 181 170 177 190 173 171 181 167 158 161 151 145 151 151 132 137 143 148 153 153 148 147 147 138 147 130 142 141 156 146 178 148 141 126 72 119 101 71 309 8 55 40 54 77 53 19 343 70 106 102 102 82 230 274 355 346 268 234 241 190 197 196 178 207 259 247 219 226 253 265 281
233 209 215 229 248 267 297 173 188 204 182 240 205 211 245 278 215 158 166 184 203 213 218 190 199 181 187 193 197 189 197 174 176 167 157 161 154 147 149 148 137 142 150 153 155 153 149 153 147 146 141 147 152 180 195 151 188 128 103 89 86 71 105 103 333 60 345 65 73 66 73 297 60 24 32 108 130 140 179 191 93 302 345 190 202 241 220 219 213 184 223 291 346 322 335 339 336
353 339 337 288 249 243 248 310 116 180 182 197 244 269 246 235 262 248 165 179 202 208 226 219 191 195 182 197 209 213 192 194 175 166 155 158 156 148 146 149 146 147 154 156 164 157 160 149 139 156 155 166 178 207 198 195 159 75 73 46 90 47 88 117 90 69 6 59 32 53 49 96 48 7 9 347 166 154 175 130 147 231 286 326 307 260 263 289 262 235 220 233 280 295 318 317 339
341 315 314 303 291 234 158 136 168 123 213 219 231 237 255 268 265 265 204 172 190 218 208 228 216 192 200 203 206 213 215 205 180 167 154 163 160 151 149 148 153 152 162 159 171 167 158 154 154 167 162 174 190 207 65 53 76 117 105 119 125 93 64 42 106 84 49 84 12 35 336 56 86 89 309 27 0 326 151 196 156 170 201 246 292 283 294 271 251 278 313 183 220 233 253 333 335
321 320 296 292 284 293 293 88 77 101 189 267 261 274 275 275 270 261 260 173 193 197 218 213 222 215 213 211 203 203 211 214 213 163 165 161 163 157 154 151 156 159 170 169 173 174 156 163 163 154 154 199 217 83 99 89 52 47 61 53 3 78 58 40 69 86 153 129 150 140 218 143 32 348 242 141 308 194 286 356 240 175 158 181 199 249 248 253 270 266 253 279 257 237 231 173 212
326 295 297 280 275 280 275 152 172 146 141 248 261 269 275 270 263 258 253 254 187 192 203 222 217 221 227 223 225 225 204 202 203 196 185 167 163 158 158 155 157 165 169 171 173 176 167 165 164 148 164 161 138 127 145 116 90 39 51 84 360 104 107 51 91 138 73 89 148 157 85 39 12 336 313 285 191 216 208 217 206 253 219 183 163 200 224 233 228 244 240 246 267 259 254 191 180
288 288 271 264 279 281 279 129 89 26 325 315 309 288 276 269 261 257 258 234 247 179 189 199 214 235 230 230 227 219 225 226 227 207 198 185 163 154 156 155 159 165 168 170 174 176 175 168 174 151 162 159 152 186 117 125 121 113 112 114 71 0 127 176 161 113 106 107 98 105 87 49 16 306 328 340 334 331 307 356 63 28 336 313 224 199 199 209 215 225 216 232 246 265 251 239 185
247 249 264 268 254 256 307 42 335 35 299 273 274 268 266 259 256 251 232 234 245 240 197 192 204 218 232 250 256 234 223 212 215 202 229 186 153 152 156 158 161 169 169 172 174 179 175 175 171 154 161 156 160 134 126 122 130 154 141 166 143 12 224 104 78 92 107 106 96 69 91 117 256 8 356 328 316 326 18 7 350 339 310 300 323 304 250 228 218 211 216 211 210 230 253 256 205
269 244 236 261 281 296 277 270 258 250 253 221 215 264 259 247 237 241 222 211 227 237 243 226 203 206 215 222 230 240 234 244 245 194 224 134 142 149 154 162 168 174 174 175 172 178 172 171 171 151 159 155 151 156 155 158 168 179 177 177 196 189 160 115 89 88 75 69 52 96 172 113 108 57 6 301 333 338 357 342 324 334 325 311 268 267 294 273 219 224 220 206 213 212 226 237 241
264 260 243 221 231 247 292 287 295 275 277 260 175 239 281 300 278 200 219 222 213 214 229 236 232 221 218 215 213 215 222 213 220 251 184 147 156 160 160 165 172 178 180 172 169 174 176 169 169 152 162 158 150 168 169 187 179 181 196 194 89 37 109 96 107 122 117 120 132 97 19 155 202 169 182 69 307 311 312 330 323 308 301 303 298 289 278 276 277 237 210 206 209 214 217 231 233
240 352 313 301 251 271 281 276 271 278 279 186 177 205 264 284 279 284 205 209 227 208 212 222 229 231 230 223 210 204 206 207 198 212 213 170 168 176 170 165 171 178 178 172 166 168 179 170 162 157 164 160 158 166 181 186 168 163 174 166 162 188 111 126 158 126 98 283 87 151 156 215 351 226 115 188 153 285 310 324 321 296 289 282 295 295 284 283 287 284 252 226 207 210 213 222 232
258 119 287 260 248 254 257 265 266 258 258 256 212 232 253 242 270 273 273 225 195 206 210 212 221 241 243 235 220 213 203 188 188 193 219 191 171 170 171 168 171 174 175 175 167 169 174 171 159 161 166 161 160 166 179 189 178 155 163 178 201 127 119 146 172 160 161 106 176 138 340 4 139 309 319 110 161 230 218 298 326 331 303 296 293 284 280 279 268 272 286 264 238 229 220 219 225
253 293 281 293 310 268 256 255 254 249 244 250 259 220 227 249 248 247 229 239 186 203 212 214 209 213 232 221 219 221 197 178 191 194 192 213 162 161 168 168 171 174 169 168 164 163 171 172 160 165 172 161 162 167 181 186 179 153 175 182 182 146 178 167 190 131 149 161 180 150 177 213 205 165 168 250 5 169 244 210 256 278 311 306 307 301 303 298 297 301 302 299 287 256 242 242 226
74 310 287 246 241 245 240 250 269 283 262 249 244 259 268 273 247 262 248 199 205 208 208 203 200 198 219 210 204 208 202 184 196 187 178 195 160 161 164 169 171 163 162 164 164 166 172 175 165 168 176 161 164 169 175 182 170 163 180 172 174 165 178 160 174 135 185 162 194 161 185 205 42 17 116 173 201 225 179 225 235 266 273 282 287 289 289 296 300 299 285 273 272 264 249 232 241
237 224 230 257 249 231 241 237 229 247 257 262 266 255 236 254 245 253 304 105 194 213 219 185 196 200 200 203 204 200 207 197 190 183 174 183 169 160 160 164 166 162 162 166 162 168 173 177 170 169 179 164 165 171 172 171 167 180 174 165 179 167 167 172 197 172 173 169 170 166 182 189 198 182 192 212 190 201 190 201 233 238 248 258 262 265 276 292 314 324 316 297 272 272 266 257 239
236 237 253 261 268 235 232 217 231 233 250 260 257 261 253 237 258 284 306 313 183 178 274 274 245 214 185 197 198 200 200 208 195 179 183 170 168 155 156 158 166 168 170 164 165 170 173 177 173 175 180 169 163 170 174 167 174 183 170 167 177 168 172 188 194 171 158 177 174 195 201 213 173 210 180 225 58 92 32 277 265 250 248 241 256 268 284 298 306 307 297 290 292 284 284 286 274
218 232 237 239 248 254 258 246 235 244 244 250 273 282 265 295 248 243 269 285 273 231 215 251 280 264 182 194 195 196 205 207 205 188 193 164 164 155 158 166 174 167 163 167 168 170 174 177 179 182 179 174 158 168 175 169 177 178 164 168 173 164 179 190 179 182 168 200 178 174 174 207 261 198 275 195 296 1 260 262 300 320 310 308 299 295 284 273 269 275 285 293 297 296 295 285 273
217 228 239 241 254 259 269 271 276 278 304 316 258 335 246 235 219 220 242 252 266 257 221 200 241 281 199 206 209 204 207 213 217 213 198 170 163 162 164 170 161 152 163 171 172 176 174 178 183 184 178 173 160 168 172 174 174 173 170 173 176 168 175 182 195 190 169 190 183 172 176 178 217 238 229 212 205 219 259 303 295 297 298 296 298 296 295 295 294 284 279 282 284 288 283 278 282
278 238 216 243 255 278 272 294 293 299 309 301 296 243 311 247 295 272 276 276 274 288 281 210 199 237 253 217 224 229 213 208 204 228 224 169 166 163 168 166 153 159 167 174 178 176 179 184 183 184 180 171 164 167 174 175 175 175 173 180 180 172 179 180 190 195 161 178 175 190 181 200 231 281 290 277 264 256 264 261 268 262 268 272 280 284 288 296 302 299 292 288 286 284 284 285 282
246 268 262 247 222 249 266 270 286 298 277 272 279 267 261 261 244 238 265 279 258 264 281 282 250 218 214 252 236 242 265 259 212 201 207 191 157 161 161 159 163 163 169 175 181 178 182 182 180 181 182 168 167 169 171 174 175 175 175 181 177 182 185 186 190 178 166 155 173 180 222 214 228 222 282 309 284 269 252 258 269 280 284 287 287 288 285 277 277 289 289 285 280 281 281 283 284
251 255 256 282 278 267 238 264 253 241 259 268 262 247 255 259 280 259 237 230 250 260 242 237 237 212 201 200 204 238 243 255 281 271 197 201 156 157 159 165 173 174 175 177 180 175 175 180 179 180 182 171 171 170 172 174 176 175 173 182 183 184 187 188 194 170 164 165 178 203 204 217 215 217 224 247 281 284 274 264 254 252 244 249 257 261 273 280 285 283 284 288 291 294 294 290 283
267 281 323 286 270 261 239 254 253 259 255 269 255 261 258 253 250 255 271 278 282 286 294 259 240 260 234 200 202 201 219 248 256 269 258 219 167 158 162 168 175 175 175 175 176 166 162 172 181 181 183 177 174 170 171 171 173 171 174 180 181 180 185 186 187 181 169 191 201 203 211 213 223 255 263 256 251 250 251 269 283 286 283 277 270 267 275 288 291 289 286 283 283 286 282 277 279
256 256 258 254 274 271 279 240 265 259 265 263 259 261 265 263 269 280 286 284 291 290 338 324 295 269 242 229 244 216 196 214 224 243 248 230 215 182 162 163 173 173 178 176 171 157 159 169 175 182 184 179 167 166 169 172 173 168 171 176 182 183 185 184 184 184 189 199 208 210 218 227 225 238 248 251 250 256 264 275 278 282 277 273 274 273 261 261 266 267 275 278 280 284 284 281 276
250 254 259 268 260 317 303 277 260 258 263 262 282 276 266 264 292 284 286 310 321 315 302 282 272 254 280 287 231 197 240 195 201 227 255 241 208 198 158 165 178 181 178 182 159 161 165 171 176 180 180 181 169 166 169 170 169 170 171 178 181 181 185 182 184 187 194 206 210 215 222 221 230 232 235 238 239 257 271 266 271 276 283 286 287 284 285 277 279 283 274 268 272 278 278 278 281
263 261 265 257 257 256 267 289 297 291 287 269 266 268 277 288 303 313 312 325 328 323 315 317 312 310 270 262 300 301 234 229 178 191 255 270 216 181 163 169 184 192 178 167 165 167 170 170 176 178 176 182 169 167 172 170 169 173 175 178 179 181 182 184 185 183 200 207 213 223 221 230 237 243 242 261 271 268 260 262 264 264 265 275 275 278 284 289 274 265 272 280 276 270 271 274 277